owner,sensor,date,latitude,longitude,vertical_datum,sea_water_temperature,qcFlag 
COMPS,ioos:station:USF.COMPS:FHP:1,2014-07-02T22:00:00Z,28.1530,-82.8010,-1.0,32.45,2 
COMPS,ioos:station:USF.COMPS:FHP:1,2014-07-02T22:06:00Z,28.1530,-82.8010,-1.0,32.45,2 
COMPS,ioos:station:USF.COMPS:FHP:1,2014-07-02T22:12:00Z,28.1530,-82.8010,-1.0,32.42,2 
COMPS,ioos:station:USF.COMPS:FHP:1,2014-07-02T22:18:00Z,28.1530,-82.8010,-1.0,32.38,2 
COMPS,ioos:station:USF.COMPS:FHP:1,2014-07-02T22:24:00Z,28.1530,-82.8010,-1.0,32.36,2 
COMPS,ioos:station:USF.COMPS:FHP:1,2014-07-02T22:30:00Z,28.1530,-82.8010,-1.0,32.32,2 
COMPS,ioos:station:USF.COMPS:FHP:1,2014-07-02T22:36:00Z,28.1530,-82.8010,-1.0,32.26,2 
COMPS,ioos:station:USF.COMPS:FHP:1,2014-07-02T22:42:00Z,28.1530,-82.8010,-1.0,32.25,2 
COMPS,ioos:station:USF.COMPS:FHP:1,2014-07-02T22:48:00Z,28.1530,-82.8010,-1.0,32.24,2 
COMPS,ioos:station:USF.COMPS:FHP:1,2014-07-02T22:54:00Z,28.1530,-82.8010,-1.0,32.2,2 
COMPS,ioos:station:USF.COMPS:FHP:1,2014-07-02T23:00:00Z,28.1530,-82.8010,-1.0,32.18,2 
COMPS,ioos:station:USF.COMPS:FHP:1,2014-07-02T23:06:00Z,28.1530,-82.8010,-1.0,32.16,2 
COMPS,ioos:station:USF.COMPS:FHP:1,2014-07-02T23:12:00Z,28.1530,-82.8010,-1.0,32.14,2 
COMPS,ioos:station:USF.COMPS:FHP:1,2014-07-02T23:18:00Z,28.1530,-82.8010,-1.0,32.12,2 
COMPS,ioos:station:USF.COMPS:FHP:1,2014-07-02T23:24:00Z,28.1530,-82.8010,-1.0,32.1,2 
COMPS,ioos:station:USF.COMPS:FHP:1,2014-07-02T23:30:00Z,28.1530,-82.8010,-1.0,32.06,2 
COMPS,ioos:station:USF.COMPS:FHP:1,2014-07-02T23:36:00Z,28.1530,-82.8010,-1.0,32.02,2 
COMPS,ioos:station:USF.COMPS:FHP:1,2014-07-02T23:42:00Z,28.1530,-82.8010,-1.0,31.97,2 
COMPS,ioos:station:USF.COMPS:FHP:1,2014-07-02T23:48:00Z,28.1530,-82.8010,-1.0,31.92,2 
COMPS,ioos:station:USF.COMPS:FHP:1,2014-07-02T23:54:00Z,28.1530,-82.8010,-1.0,31.83,2 
COMPS,ioos:station:USF.COMPS:FHP:1,2014-07-03T00:00:00Z,28.1530,-82.8010,-1.0,31.68,2 
COMPS,ioos:station:USF.COMPS:FHP:1,2014-07-03T00:06:00Z,28.1530,-82.8010,-1.0,31.56,2 
COMPS,ioos:station:USF.COMPS:FHP:1,2014-07-03T00:12:00Z,28.1530,-82.8010,-1.0,31.49,2 
COMPS,ioos:station:USF.COMPS:FHP:1,2014-07-03T00:18:00Z,28.1530,-82.8010,-1.0,31.42,2 
COMPS,ioos:station:USF.COMPS:FHP:1,2014-07-03T00:24:00Z,28.1530,-82.8010,-1.0,31.31,2 
COMPS,ioos:station:USF.COMPS:FHP:1,2014-07-03T00:30:00Z,28.1530,-82.8010,-1.0,31.2,2 
COMPS,ioos:station:USF.COMPS:FHP:1,2014-07-03T00:36:00Z,28.1530,-82.8010,-1.0,31.14,2 
COMPS,ioos:station:USF.COMPS:FHP:1,2014-07-03T00:42:00Z,28.1530,-82.8010,-1.0,31.03,2 
COMPS,ioos:station:USF.COMPS:FHP:1,2014-07-03T00:48:00Z,28.1530,-82.8010,-1.0,30.91,2 
COMPS,ioos:station:USF.COMPS:FHP:1,2014-07-03T00:54:00Z,28.1530,-82.8010,-1.0,30.83,2 
COMPS,ioos:station:USF.COMPS:FHP:1,2014-07-03T01:00:00Z,28.1530,-82.8010,-1.0,29.99,2 
COMPS,ioos:station:USF.COMPS:FHP:1,2014-07-03T01:06:00Z,28.1530,-82.8010,-1.0,28.26,2 
COMPS,ioos:station:USF.COMPS:FHP:1,2014-07-03T01:12:00Z,28.1530,-82.8010,-1.0,28.15,2 
COMPS,ioos:station:USF.COMPS:FHP:1,2014-07-03T01:18:00Z,28.1530,-82.8010,-1.0,27.97,2 
COMPS,ioos:station:USF.COMPS:FHP:1,2014-07-03T01:24:00Z,28.1530,-82.8010,-1.0,27.78,2 
COMPS,ioos:station:USF.COMPS:FHP:1,2014-07-03T01:30:00Z,28.1530,-82.8010,-1.0,27.56,2 
COMPS,ioos:station:USF.COMPS:FHP:1,2014-07-03T01:36:00Z,28.1530,-82.8010,-1.0,27.02,2 
COMPS,ioos:station:USF.COMPS:FHP:1,2014-07-03T01:42:00Z,28.1530,-82.8010,-1.0,26.15,2 
COMPS,ioos:station:USF.COMPS:FHP:1,2014-07-03T01:48:00Z,28.1530,-82.8010,-1.0,26.41,2 
COMPS,ioos:station:USF.COMPS:FHP:1,2014-07-03T01:54:00Z,28.1530,-82.8010,-1.0,26.5,2 
COMPS,ioos:station:USF.COMPS:FHP:1,2014-07-03T02:00:00Z,28.1530,-82.8010,-1.0,26.57,2 
COMPS,ioos:station:USF.COMPS:FHP:1,2014-07-03T02:06:00Z,28.1530,-82.8010,-1.0,26.59,2 
COMPS,ioos:station:USF.COMPS:FHP:1,2014-07-03T02:12:00Z,28.1530,-82.8010,-1.0,26.42,2 
COMPS,ioos:station:USF.COMPS:FHP:1,2014-07-03T02:18:00Z,28.1530,-82.8010,-1.0,26.19,2 
COMPS,ioos:station:USF.COMPS:FHP:1,2014-07-03T02:24:00Z,28.1530,-82.8010,-1.0,25.98,2 
COMPS,ioos:station:USF.COMPS:FHP:1,2014-07-03T02:30:00Z,28.1530,-82.8010,-1.0,25.9,2 
COMPS,ioos:station:USF.COMPS:FHP:1,2014-07-03T02:36:00Z,28.1530,-82.8010,-1.0,25.81,2 
COMPS,ioos:station:USF.COMPS:FHP:1,2014-07-03T02:42:00Z,28.1530,-82.8010,-1.0,25.79,2 
COMPS,ioos:station:USF.COMPS:FHP:1,2014-07-03T02:48:00Z,28.1530,-82.8010,-1.0,25.79,2 
COMPS,ioos:station:USF.COMPS:FHP:1,2014-07-03T02:54:00Z,28.1530,-82.8010,-1.0,25.72,2 
COMPS,ioos:station:USF.COMPS:FHP:1,2014-07-03T03:00:00Z,28.1530,-82.8010,-1.0,25.78,2 
COMPS,ioos:station:USF.COMPS:FHP:1,2014-07-03T03:06:00Z,28.1530,-82.8010,-1.0,25.84,2 
COMPS,ioos:station:USF.COMPS:FHP:1,2014-07-03T03:12:00Z,28.1530,-82.8010,-1.0,25.99,2 
COMPS,ioos:station:USF.COMPS:FHP:1,2014-07-03T03:18:00Z,28.1530,-82.8010,-1.0,26.23,2 
COMPS,ioos:station:USF.COMPS:FHP:1,2014-07-03T03:24:00Z,28.1530,-82.8010,-1.0,26.36,2 
COMPS,ioos:station:USF.COMPS:FHP:1,2014-07-03T03:30:00Z,28.1530,-82.8010,-1.0,26.45,2 
COMPS,ioos:station:USF.COMPS:FHP:1,2014-07-03T03:36:00Z,28.1530,-82.8010,-1.0,26.61,2 
COMPS,ioos:station:USF.COMPS:FHP:1,2014-07-03T03:42:00Z,28.1530,-82.8010,-1.0,26.68,2 
COMPS,ioos:station:USF.COMPS:FHP:1,2014-07-03T03:48:00Z,28.1530,-82.8010,-1.0,26.66,2 
COMPS,ioos:station:USF.COMPS:FHP:1,2014-07-03T03:54:00Z,28.1530,-82.8010,-1.0,26.91,2 
COMPS,ioos:station:USF.COMPS:FHP:1,2014-07-03T04:00:00Z,28.1530,-82.8010,-1.0,27.16,2 
COMPS,ioos:station:USF.COMPS:FHP:1,2014-07-03T04:06:00Z,28.1530,-82.8010,-1.0,27.36,2 
COMPS,ioos:station:USF.COMPS:FHP:1,2014-07-03T04:12:00Z,28.1530,-82.8010,-1.0,28.69,2 
COMPS,ioos:station:USF.COMPS:FHP:1,2014-07-03T04:18:00Z,28.1530,-82.8010,-1.0,29.75,2 
COMPS,ioos:station:USF.COMPS:FHP:1,2014-07-03T04:24:00Z,28.1530,-82.8010,-1.0,29.74,2 
COMPS,ioos:station:USF.COMPS:FHP:1,2014-07-03T04:30:00Z,28.1530,-82.8010,-1.0,29.77,2 
COMPS,ioos:station:USF.COMPS:FHP:1,2014-07-03T04:36:00Z,28.1530,-82.8010,-1.0,29.78,2 
COMPS,ioos:station:USF.COMPS:FHP:1,2014-07-03T04:42:00Z,28.1530,-82.8010,-1.0,29.85,2 
COMPS,ioos:station:USF.COMPS:FHP:1,2014-07-03T04:48:00Z,28.1530,-82.8010,-1.0,29.93,2 
COMPS,ioos:station:USF.COMPS:FHP:1,2014-07-03T04:54:00Z,28.1530,-82.8010,-1.0,29.98,2 
COMPS,ioos:station:USF.COMPS:FHP:1,2014-07-03T05:00:00Z,28.1530,-82.8010,-1.0,29.99,2 
COMPS,ioos:station:USF.COMPS:FHP:1,2014-07-03T05:06:00Z,28.1530,-82.8010,-1.0,30.0,2 
COMPS,ioos:station:USF.COMPS:FHP:1,2014-07-03T05:12:00Z,28.1530,-82.8010,-1.0,29.98,2 
COMPS,ioos:station:USF.COMPS:FHP:1,2014-07-03T05:18:00Z,28.1530,-82.8010,-1.0,29.99,2 
COMPS,ioos:station:USF.COMPS:FHP:1,2014-07-03T05:24:00Z,28.1530,-82.8010,-1.0,30.07,2 
COMPS,ioos:station:USF.COMPS:FHP:1,2014-07-03T05:30:00Z,28.1530,-82.8010,-1.0,30.07,2 
COMPS,ioos:station:USF.COMPS:FHP:1,2014-07-03T05:36:00Z,28.1530,-82.8010,-1.0,30.13,2 
COMPS,ioos:station:USF.COMPS:FHP:1,2014-07-03T05:42:00Z,28.1530,-82.8010,-1.0,30.12,2 
COMPS,ioos:station:USF.COMPS:FHP:1,2014-07-03T05:48:00Z,28.1530,-82.8010,-1.0,30.08,2 
COMPS,ioos:station:USF.COMPS:FHP:1,2014-07-03T05:54:00Z,28.1530,-82.8010,-1.0,30.05,2 
COMPS,ioos:station:USF.COMPS:FHP:1,2014-07-03T06:00:00Z,28.1530,-82.8010,-1.0,30.03,2 
COMPS,ioos:station:USF.COMPS:FHP:1,2014-07-03T06:06:00Z,28.1530,-82.8010,-1.0,30.03,2 
COMPS,ioos:station:USF.COMPS:FHP:1,2014-07-03T06:12:00Z,28.1530,-82.8010,-1.0,30.04,2 
COMPS,ioos:station:USF.COMPS:FHP:1,2014-07-03T06:18:00Z,28.1530,-82.8010,-1.0,30.06,2 
COMPS,ioos:station:USF.COMPS:FHP:1,2014-07-03T06:24:00Z,28.1530,-82.8010,-1.0,30.07,2 
COMPS,ioos:station:USF.COMPS:FHP:1,2014-07-03T06:30:00Z,28.1530,-82.8010,-1.0,30.13,2 
COMPS,ioos:station:USF.COMPS:FHP:1,2014-07-03T06:36:00Z,28.1530,-82.8010,-1.0,30.08,2 
COMPS,ioos:station:USF.COMPS:FHP:1,2014-07-03T06:42:00Z,28.1530,-82.8010,-1.0,29.78,2 
COMPS,ioos:station:USF.COMPS:FHP:1,2014-07-03T06:48:00Z,28.1530,-82.8010,-1.0,29.97,2 
COMPS,ioos:station:USF.COMPS:FHP:1,2014-07-03T06:54:00Z,28.1530,-82.8010,-1.0,30.18,2 
COMPS,ioos:station:USF.COMPS:FHP:1,2014-07-03T07:00:00Z,28.1530,-82.8010,-1.0,29.87,2 
COMPS,ioos:station:USF.COMPS:FHP:1,2014-07-03T07:06:00Z,28.1530,-82.8010,-1.0,30.31,2 
COMPS,ioos:station:USF.COMPS:FHP:1,2014-07-03T07:12:00Z,28.1530,-82.8010,-1.0,30.31,2 
COMPS,ioos:station:USF.COMPS:FHP:1,2014-07-03T07:18:00Z,28.1530,-82.8010,-1.0,29.87,2 
COMPS,ioos:station:USF.COMPS:FHP:1,2014-07-03T07:24:00Z,28.1530,-82.8010,-1.0,30.12,2 
COMPS,ioos:station:USF.COMPS:FHP:1,2014-07-03T07:30:00Z,28.1530,-82.8010,-1.0,30.23,2 
COMPS,ioos:station:USF.COMPS:FHP:1,2014-07-03T07:36:00Z,28.1530,-82.8010,-1.0,30.23,2 
COMPS,ioos:station:USF.COMPS:FHP:1,2014-07-03T07:42:00Z,28.1530,-82.8010,-1.0,30.29,2 
COMPS,ioos:station:USF.COMPS:FHP:1,2014-07-03T07:48:00Z,28.1530,-82.8010,-1.0,30.23,2 
COMPS,ioos:station:USF.COMPS:FHP:1,2014-07-03T07:54:00Z,28.1530,-82.8010,-1.0,29.83,2 
COMPS,ioos:station:USF.COMPS:FHP:1,2014-07-03T08:00:00Z,28.1530,-82.8010,-1.0,29.79,2 
COMPS,ioos:station:USF.COMPS:FHP:1,2014-07-03T08:06:00Z,28.1530,-82.8010,-1.0,29.72,2 
COMPS,ioos:station:USF.COMPS:FHP:1,2014-07-03T08:12:00Z,28.1530,-82.8010,-1.0,29.85,2 
COMPS,ioos:station:USF.COMPS:FHP:1,2014-07-03T08:18:00Z,28.1530,-82.8010,-1.0,29.76,2 
COMPS,ioos:station:USF.COMPS:FHP:1,2014-07-03T08:24:00Z,28.1530,-82.8010,-1.0,29.78,2 
COMPS,ioos:station:USF.COMPS:FHP:1,2014-07-03T08:30:00Z,28.1530,-82.8010,-1.0,29.91,2 
COMPS,ioos:station:USF.COMPS:FHP:1,2014-07-03T08:36:00Z,28.1530,-82.8010,-1.0,29.85,2 
COMPS,ioos:station:USF.COMPS:FHP:1,2014-07-03T08:42:00Z,28.1530,-82.8010,-1.0,29.84,2 
COMPS,ioos:station:USF.COMPS:FHP:1,2014-07-03T08:48:00Z,28.1530,-82.8010,-1.0,29.81,2 
COMPS,ioos:station:USF.COMPS:FHP:1,2014-07-03T08:54:00Z,28.1530,-82.8010,-1.0,29.81,2 
COMPS,ioos:station:USF.COMPS:FHP:1,2014-07-03T09:00:00Z,28.1530,-82.8010,-1.0,29.87,2 
COMPS,ioos:station:USF.COMPS:FHP:1,2014-07-03T09:06:00Z,28.1530,-82.8010,-1.0,29.94,2 
COMPS,ioos:station:USF.COMPS:FHP:1,2014-07-03T09:12:00Z,28.1530,-82.8010,-1.0,29.86,2 
COMPS,ioos:station:USF.COMPS:FHP:1,2014-07-03T09:18:00Z,28.1530,-82.8010,-1.0,29.83,2 
COMPS,ioos:station:USF.COMPS:FHP:1,2014-07-03T09:24:00Z,28.1530,-82.8010,-1.0,29.8,2 
COMPS,ioos:station:USF.COMPS:FHP:1,2014-07-03T09:30:00Z,28.1530,-82.8010,-1.0,29.86,2 
COMPS,ioos:station:USF.COMPS:FHP:1,2014-07-03T09:36:00Z,28.1530,-82.8010,-1.0,29.87,2 
COMPS,ioos:station:USF.COMPS:FHP:1,2014-07-03T09:42:00Z,28.1530,-82.8010,-1.0,29.86,2 
COMPS,ioos:station:USF.COMPS:FHP:1,2014-07-03T09:48:00Z,28.1530,-82.8010,-1.0,29.87,2 
COMPS,ioos:station:USF.COMPS:FHP:1,2014-07-03T09:54:00Z,28.1530,-82.8010,-1.0,29.95,2 
COMPS,ioos:station:USF.COMPS:FHP:1,2014-07-03T10:00:00Z,28.1530,-82.8010,-1.0,29.96,2 
COMPS,ioos:station:USF.COMPS:FHP:1,2014-07-03T10:06:00Z,28.1530,-82.8010,-1.0,29.92,2 
COMPS,ioos:station:USF.COMPS:FHP:1,2014-07-03T10:12:00Z,28.1530,-82.8010,-1.0,29.84,2 
COMPS,ioos:station:USF.COMPS:FHP:1,2014-07-03T10:18:00Z,28.1530,-82.8010,-1.0,29.71,2 
COMPS,ioos:station:USF.COMPS:FHP:1,2014-07-03T10:24:00Z,28.1530,-82.8010,-1.0,29.78,2 
COMPS,ioos:station:USF.COMPS:FHP:1,2014-07-03T10:30:00Z,28.1530,-82.8010,-1.0,29.71,2 
COMPS,ioos:station:USF.COMPS:FHP:1,2014-07-03T10:36:00Z,28.1530,-82.8010,-1.0,29.61,2 
COMPS,ioos:station:USF.COMPS:FHP:1,2014-07-03T10:42:00Z,28.1530,-82.8010,-1.0,29.59,2 
COMPS,ioos:station:USF.COMPS:FHP:1,2014-07-03T10:48:00Z,28.1530,-82.8010,-1.0,29.61,2 
COMPS,ioos:station:USF.COMPS:FHP:1,2014-07-03T10:54:00Z,28.1530,-82.8010,-1.0,29.6,2 
COMPS,ioos:station:USF.COMPS:FHP:1,2014-07-03T11:00:00Z,28.1530,-82.8010,-1.0,29.46,2 
COMPS,ioos:station:USF.COMPS:FHP:1,2014-07-03T11:06:00Z,28.1530,-82.8010,-1.0,29.59,2 
COMPS,ioos:station:USF.COMPS:FHP:1,2014-07-03T11:12:00Z,28.1530,-82.8010,-1.0,29.54,2 
COMPS,ioos:station:USF.COMPS:FHP:1,2014-07-03T11:18:00Z,28.1530,-82.8010,-1.0,29.58,2 
COMPS,ioos:station:USF.COMPS:FHP:1,2014-07-03T11:24:00Z,28.1530,-82.8010,-1.0,29.64,2 
COMPS,ioos:station:USF.COMPS:FHP:1,2014-07-03T11:30:00Z,28.1530,-82.8010,-1.0,29.59,2 
COMPS,ioos:station:USF.COMPS:FHP:1,2014-07-03T11:36:00Z,28.1530,-82.8010,-1.0,29.58,2 
COMPS,ioos:station:USF.COMPS:FHP:1,2014-07-03T11:42:00Z,28.1530,-82.8010,-1.0,29.63,2 
COMPS,ioos:station:USF.COMPS:FHP:1,2014-07-03T11:48:00Z,28.1530,-82.8010,-1.0,29.57,2 
COMPS,ioos:station:USF.COMPS:FHP:1,2014-07-03T11:54:00Z,28.1530,-82.8010,-1.0,29.51,2 
COMPS,ioos:station:USF.COMPS:FHP:1,2014-07-03T12:00:00Z,28.1530,-82.8010,-1.0,29.45,2 
COMPS,ioos:station:USF.COMPS:FHP:1,2014-07-03T12:06:00Z,28.1530,-82.8010,-1.0,29.48,2 
COMPS,ioos:station:USF.COMPS:FHP:1,2014-07-03T12:12:00Z,28.1530,-82.8010,-1.0,29.41,2 
COMPS,ioos:station:USF.COMPS:FHP:1,2014-07-03T12:18:00Z,28.1530,-82.8010,-1.0,29.38,2 
COMPS,ioos:station:USF.COMPS:FHP:1,2014-07-03T12:24:00Z,28.1530,-82.8010,-1.0,29.35,2 
COMPS,ioos:station:USF.COMPS:FHP:1,2014-07-03T12:30:00Z,28.1530,-82.8010,-1.0,29.35,2 
COMPS,ioos:station:USF.COMPS:FHP:1,2014-07-03T12:36:00Z,28.1530,-82.8010,-1.0,29.36,2 
COMPS,ioos:station:USF.COMPS:FHP:1,2014-07-03T12:42:00Z,28.1530,-82.8010,-1.0,29.36,2 
COMPS,ioos:station:USF.COMPS:FHP:1,2014-07-03T12:48:00Z,28.1530,-82.8010,-1.0,29.34,2 
COMPS,ioos:station:USF.COMPS:FHP:1,2014-07-03T12:54:00Z,28.1530,-82.8010,-1.0,29.33,2 
COMPS,ioos:station:USF.COMPS:FHP:1,2014-07-03T13:00:00Z,28.1530,-82.8010,-1.0,29.37,2 
COMPS,ioos:station:USF.COMPS:FHP:1,2014-07-03T13:06:00Z,28.1530,-82.8010,-1.0,29.39,2 
COMPS,ioos:station:USF.COMPS:FHP:1,2014-07-03T13:12:00Z,28.1530,-82.8010,-1.0,29.41,2 
COMPS,ioos:station:USF.COMPS:FHP:1,2014-07-03T13:18:00Z,28.1530,-82.8010,-1.0,29.38,2 
COMPS,ioos:station:USF.COMPS:FHP:1,2014-07-03T13:24:00Z,28.1530,-82.8010,-1.0,29.39,2 
COMPS,ioos:station:USF.COMPS:FHP:1,2014-07-03T13:30:00Z,28.1530,-82.8010,-1.0,29.42,2 
COMPS,ioos:station:USF.COMPS:FHP:1,2014-07-03T13:36:00Z,28.1530,-82.8010,-1.0,29.46,2 
COMPS,ioos:station:USF.COMPS:FHP:1,2014-07-03T13:42:00Z,28.1530,-82.8010,-1.0,29.42,2 
COMPS,ioos:station:USF.COMPS:FHP:1,2014-07-03T13:48:00Z,28.1530,-82.8010,-1.0,29.48,2 
COMPS,ioos:station:USF.COMPS:FHP:1,2014-07-03T13:54:00Z,28.1530,-82.8010,-1.0,29.44,2 
COMPS,ioos:station:USF.COMPS:FHP:1,2014-07-03T14:00:00Z,28.1530,-82.8010,-1.0,29.58,2 
COMPS,ioos:station:USF.COMPS:FHP:1,2014-07-03T14:06:00Z,28.1530,-82.8010,-1.0,29.65,2 
COMPS,ioos:station:USF.COMPS:FHP:1,2014-07-03T14:12:00Z,28.1530,-82.8010,-1.0,29.62,2 
COMPS,ioos:station:USF.COMPS:FHP:1,2014-07-03T14:18:00Z,28.1530,-82.8010,-1.0,29.75,2 
COMPS,ioos:station:USF.COMPS:FHP:1,2014-07-03T14:24:00Z,28.1530,-82.8010,-1.0,29.72,2 
COMPS,ioos:station:USF.COMPS:FHP:1,2014-07-03T14:30:00Z,28.1530,-82.8010,-1.0,29.79,2 
COMPS,ioos:station:USF.COMPS:FHP:1,2014-07-03T14:36:00Z,28.1530,-82.8010,-1.0,29.96,2 
COMPS,ioos:station:USF.COMPS:FHP:1,2014-07-03T14:42:00Z,28.1530,-82.8010,-1.0,29.98,2 
COMPS,ioos:station:USF.COMPS:FHP:1,2014-07-03T14:48:00Z,28.1530,-82.8010,-1.0,30.04,2 
COMPS,ioos:station:USF.COMPS:FHP:1,2014-07-03T14:54:00Z,28.1530,-82.8010,-1.0,30.11,2 
COMPS,ioos:station:USF.COMPS:FHP:1,2014-07-03T15:00:00Z,28.1530,-82.8010,-1.0,30.12,2 
COMPS,ioos:station:USF.COMPS:FHP:1,2014-07-03T15:06:00Z,28.1530,-82.8010,-1.0,30.22,2 
COMPS,ioos:station:USF.COMPS:FHP:1,2014-07-03T15:12:00Z,28.1530,-82.8010,-1.0,30.27,2 
COMPS,ioos:station:USF.COMPS:FHP:1,2014-07-03T15:18:00Z,28.1530,-82.8010,-1.0,30.26,2 
COMPS,ioos:station:USF.COMPS:FHP:1,2014-07-03T15:24:00Z,28.1530,-82.8010,-1.0,30.31,2 
COMPS,ioos:station:USF.COMPS:FHP:1,2014-07-03T15:30:00Z,28.1530,-82.8010,-1.0,30.27,2 
COMPS,ioos:station:USF.COMPS:FHP:1,2014-07-03T15:36:00Z,28.1530,-82.8010,-1.0,30.29,2 
COMPS,ioos:station:USF.COMPS:FHP:1,2014-07-03T15:42:00Z,28.1530,-82.8010,-1.0,30.39,2 
COMPS,ioos:station:USF.COMPS:FHP:1,2014-07-03T15:48:00Z,28.1530,-82.8010,-1.0,30.42,2 
COMPS,ioos:station:USF.COMPS:FHP:1,2014-07-03T15:54:00Z,28.1530,-82.8010,-1.0,30.48,2 
COMPS,ioos:station:USF.COMPS:FHP:1,2014-07-03T16:00:00Z,28.1530,-82.8010,-1.0,30.54,2 
COMPS,ioos:station:USF.COMPS:FHP:1,2014-07-03T16:06:00Z,28.1530,-82.8010,-1.0,30.6,2 
COMPS,ioos:station:USF.COMPS:FHP:1,2014-07-03T16:12:00Z,28.1530,-82.8010,-1.0,30.66,2 
COMPS,ioos:station:USF.COMPS:FHP:1,2014-07-03T16:18:00Z,28.1530,-82.8010,-1.0,30.72,2 
COMPS,ioos:station:USF.COMPS:FHP:1,2014-07-03T16:24:00Z,28.1530,-82.8010,-1.0,30.75,2 
COMPS,ioos:station:USF.COMPS:FHP:1,2014-07-03T16:30:00Z,28.1530,-82.8010,-1.0,30.8,2 
COMPS,ioos:station:USF.COMPS:FHP:1,2014-07-03T16:36:00Z,28.1530,-82.8010,-1.0,30.8,2 
COMPS,ioos:station:USF.COMPS:FHP:1,2014-07-03T16:42:00Z,28.1530,-82.8010,-1.0,30.9,2 
COMPS,ioos:station:USF.COMPS:FHP:1,2014-07-03T16:48:00Z,28.1530,-82.8010,-1.0,31.03,2 
COMPS,ioos:station:USF.COMPS:FHP:1,2014-07-03T16:54:00Z,28.1530,-82.8010,-1.0,31.07,2 
COMPS,ioos:station:USF.COMPS:FHP:1,2014-07-03T17:00:00Z,28.1530,-82.8010,-1.0,31.08,2 
COMPS,ioos:station:USF.COMPS:FHP:1,2014-07-03T17:06:00Z,28.1530,-82.8010,-1.0,31.17,2 
COMPS,ioos:station:USF.COMPS:FHP:1,2014-07-03T17:12:00Z,28.1530,-82.8010,-1.0,31.34,2 
COMPS,ioos:station:USF.COMPS:FHP:1,2014-07-03T17:18:00Z,28.1530,-82.8010,-1.0,31.36,2 
COMPS,ioos:station:USF.COMPS:FHP:1,2014-07-03T17:24:00Z,28.1530,-82.8010,-1.0,31.47,2 
COMPS,ioos:station:USF.COMPS:FHP:1,2014-07-03T17:30:00Z,28.1530,-82.8010,-1.0,31.54,2 
COMPS,ioos:station:USF.COMPS:FHP:1,2014-07-03T17:36:00Z,28.1530,-82.8010,-1.0,31.69,2 
COMPS,ioos:station:USF.COMPS:FHP:1,2014-07-03T17:42:00Z,28.1530,-82.8010,-1.0,31.71,2 
COMPS,ioos:station:USF.COMPS:FHP:1,2014-07-03T17:48:00Z,28.1530,-82.8010,-1.0,31.69,2 
COMPS,ioos:station:USF.COMPS:FHP:1,2014-07-03T17:54:00Z,28.1530,-82.8010,-1.0,31.75,2 
COMPS,ioos:station:USF.COMPS:FHP:1,2014-07-03T18:00:00Z,28.1530,-82.8010,-1.0,31.77,2 
COMPS,ioos:station:USF.COMPS:FHP:1,2014-07-03T18:06:00Z,28.1530,-82.8010,-1.0,31.69,2 
COMPS,ioos:station:USF.COMPS:FHP:1,2014-07-03T18:12:00Z,28.1530,-82.8010,-1.0,31.89,2 
COMPS,ioos:station:USF.COMPS:FHP:1,2014-07-03T18:18:00Z,28.1530,-82.8010,-1.0,31.86,2 
COMPS,ioos:station:USF.COMPS:FHP:1,2014-07-03T18:24:00Z,28.1530,-82.8010,-1.0,32.03,2 
COMPS,ioos:station:USF.COMPS:FHP:1,2014-07-03T18:30:00Z,28.1530,-82.8010,-1.0,32.18,2 
COMPS,ioos:station:USF.COMPS:FHP:1,2014-07-03T18:36:00Z,28.1530,-82.8010,-1.0,32.03,2 
COMPS,ioos:station:USF.COMPS:FHP:1,2014-07-03T18:42:00Z,28.1530,-82.8010,-1.0,32.08,2 
COMPS,ioos:station:USF.COMPS:FHP:1,2014-07-03T18:48:00Z,28.1530,-82.8010,-1.0,32.18,2 
COMPS,ioos:station:USF.COMPS:FHP:1,2014-07-03T18:54:00Z,28.1530,-82.8010,-1.0,32.03,2 
COMPS,ioos:station:USF.COMPS:FHP:1,2014-07-03T19:00:00Z,28.1530,-82.8010,-1.0,31.89,2 
COMPS,ioos:station:USF.COMPS:FHP:1,2014-07-03T19:06:00Z,28.1530,-82.8010,-1.0,31.79,2 
COMPS,ioos:station:USF.COMPS:FHP:1,2014-07-03T19:12:00Z,28.1530,-82.8010,-1.0,31.97,2 
COMPS,ioos:station:USF.COMPS:FHP:1,2014-07-03T19:18:00Z,28.1530,-82.8010,-1.0,32.01,2 
COMPS,ioos:station:USF.COMPS:FHP:1,2014-07-03T19:24:00Z,28.1530,-82.8010,-1.0,31.99,2 
COMPS,ioos:station:USF.COMPS:FHP:1,2014-07-03T19:30:00Z,28.1530,-82.8010,-1.0,32.13,2 
COMPS,ioos:station:USF.COMPS:FHP:1,2014-07-03T19:36:00Z,28.1530,-82.8010,-1.0,32.17,2 
COMPS,ioos:station:USF.COMPS:FHP:1,2014-07-03T19:42:00Z,28.1530,-82.8010,-1.0,32.19,2 
COMPS,ioos:station:USF.COMPS:FHP:1,2014-07-03T19:48:00Z,28.1530,-82.8010,-1.0,32.11,2 
COMPS,ioos:station:USF.COMPS:FHP:1,2014-07-03T19:54:00Z,28.1530,-82.8010,-1.0,32.13,2 
COMPS,ioos:station:USF.COMPS:FHP:1,2014-07-03T20:00:00Z,28.1530,-82.8010,-1.0,32.06,2 
COMPS,ioos:station:USF.COMPS:FHP:1,2014-07-03T20:06:00Z,28.1530,-82.8010,-1.0,32.05,2 
COMPS,ioos:station:USF.COMPS:FHP:1,2014-07-03T20:12:00Z,28.1530,-82.8010,-1.0,32.07,2 
COMPS,ioos:station:USF.COMPS:FHP:1,2014-07-03T20:18:00Z,28.1530,-82.8010,-1.0,32.05,2 
COMPS,ioos:station:USF.COMPS:FHP:1,2014-07-03T20:24:00Z,28.1530,-82.8010,-1.0,32.09,2 
COMPS,ioos:station:USF.COMPS:FHP:1,2014-07-03T20:30:00Z,28.1530,-82.8010,-1.0,32.13,2 
COMPS,ioos:station:USF.COMPS:FHP:1,2014-07-03T20:36:00Z,28.1530,-82.8010,-1.0,32.08,2 
COMPS,ioos:station:USF.COMPS:FHP:1,2014-07-03T20:42:00Z,28.1530,-82.8010,-1.0,32.04,2 
COMPS,ioos:station:USF.COMPS:FHP:1,2014-07-03T20:48:00Z,28.1530,-82.8010,-1.0,31.95,2 
COMPS,ioos:station:USF.COMPS:FHP:1,2014-07-03T20:54:00Z,28.1530,-82.8010,-1.0,31.77,2 
COMPS,ioos:station:USF.COMPS:FHP:1,2014-07-03T21:00:00Z,28.1530,-82.8010,-1.0,31.68,2 
COMPS,ioos:station:USF.COMPS:FHP:1,2014-07-03T21:06:00Z,28.1530,-82.8010,-1.0,31.61,2 
COMPS,ioos:station:USF.COMPS:FHP:1,2014-07-03T21:12:00Z,28.1530,-82.8010,-1.0,31.71,2 
COMPS,ioos:station:USF.COMPS:FHP:1,2014-07-03T21:18:00Z,28.1530,-82.8010,-1.0,31.63,2 
COMPS,ioos:station:USF.COMPS:FHP:1,2014-07-03T21:24:00Z,28.1530,-82.8010,-1.0,31.54,2 
COMPS,ioos:station:USF.COMPS:FHP:1,2014-07-03T21:30:00Z,28.1530,-82.8010,-1.0,31.38,2 
COMPS,ioos:station:USF.COMPS:FHP:1,2014-07-03T21:36:00Z,28.1530,-82.8010,-1.0,31.26,2 
COMPS,ioos:station:USF.COMPS:FHP:1,2014-07-03T21:42:00Z,28.1530,-82.8010,-1.0,31.23,2 
COMPS,ioos:station:USF.COMPS:FHP:1,2014-07-03T21:48:00Z,28.1530,-82.8010,-1.0,31.16,2 
COMPS,ioos:station:USF.COMPS:FHP:1,2014-07-03T21:54:00Z,28.1530,-82.8010,-1.0,31.14,2 
COMPS,ioos:station:USF.COMPS:FHP:1,2014-07-03T22:00:00Z,28.1530,-82.8010,-1.0,31.09,2 
COMPS,ioos:station:USF.COMPS:FHP:1,2014-07-03T22:06:00Z,28.1530,-82.8010,-1.0,31.1,2 
COMPS,ioos:station:USF.COMPS:FHP:1,2014-07-03T22:12:00Z,28.1530,-82.8010,-1.0,31.14,2 
COMPS,ioos:station:USF.COMPS:FHP:1,2014-07-03T22:18:00Z,28.1530,-82.8010,-1.0,31.06,2 
COMPS,ioos:station:USF.COMPS:FHP:1,2014-07-03T22:24:00Z,28.1530,-82.8010,-1.0,31.12,2 
COMPS,ioos:station:USF.COMPS:FHP:1,2014-07-03T22:30:00Z,28.1530,-82.8010,-1.0,31.13,2 
COMPS,ioos:station:USF.COMPS:FHP:1,2014-07-03T22:36:00Z,28.1530,-82.8010,-1.0,31.13,2 
COMPS,ioos:station:USF.COMPS:FHP:1,2014-07-03T22:42:00Z,28.1530,-82.8010,-1.0,31.12,2 
COMPS,ioos:station:USF.COMPS:FHP:1,2014-07-03T22:48:00Z,28.1530,-82.8010,-1.0,31.11,2 
COMPS,ioos:station:USF.COMPS:FHP:1,2014-07-03T22:54:00Z,28.1530,-82.8010,-1.0,31.09,2 
COMPS,ioos:station:USF.COMPS:FHP:1,2014-07-03T23:00:00Z,28.1530,-82.8010,-1.0,31.08,2 
COMPS,ioos:station:USF.COMPS:FHP:1,2014-07-03T23:06:00Z,28.1530,-82.8010,-1.0,31.06,2 
COMPS,ioos:station:USF.COMPS:FHP:1,2014-07-03T23:12:00Z,28.1530,-82.8010,-1.0,31.04,2 
COMPS,ioos:station:USF.COMPS:FHP:1,2014-07-03T23:18:00Z,28.1530,-82.8010,-1.0,31.02,2 
COMPS,ioos:station:USF.COMPS:FHP:1,2014-07-03T23:24:00Z,28.1530,-82.8010,-1.0,30.99,2 
COMPS,ioos:station:USF.COMPS:FHP:1,2014-07-03T23:30:00Z,28.1530,-82.8010,-1.0,30.97,2 
COMPS,ioos:station:USF.COMPS:FHP:1,2014-07-03T23:36:00Z,28.1530,-82.8010,-1.0,30.93,2 
COMPS,ioos:station:USF.COMPS:FHP:1,2014-07-03T23:42:00Z,28.1530,-82.8010,-1.0,30.88,2 
COMPS,ioos:station:USF.COMPS:FHP:1,2014-07-03T23:48:00Z,28.1530,-82.8010,-1.0,30.84,2 
COMPS,ioos:station:USF.COMPS:FHP:1,2014-07-03T23:54:00Z,28.1530,-82.8010,-1.0,30.82,2 
COMPS,ioos:station:USF.COMPS:FHP:1,2014-07-04T00:00:00Z,28.1530,-82.8010,-1.0,30.76,2 
COMPS,ioos:station:USF.COMPS:FHP:1,2014-07-04T00:06:00Z,28.1530,-82.8010,-1.0,30.72,2 
COMPS,ioos:station:USF.COMPS:FHP:1,2014-07-04T00:12:00Z,28.1530,-82.8010,-1.0,30.7,2 
COMPS,ioos:station:USF.COMPS:FHP:1,2014-07-04T00:18:00Z,28.1530,-82.8010,-1.0,30.67,2 
COMPS,ioos:station:USF.COMPS:FHP:1,2014-07-04T00:24:00Z,28.1530,-82.8010,-1.0,30.65,2 
COMPS,ioos:station:USF.COMPS:FHP:1,2014-07-04T00:30:00Z,28.1530,-82.8010,-1.0,30.62,2 
COMPS,ioos:station:USF.COMPS:FHP:1,2014-07-04T00:36:00Z,28.1530,-82.8010,-1.0,30.58,2 
COMPS,ioos:station:USF.COMPS:FHP:1,2014-07-04T00:42:00Z,28.1530,-82.8010,-1.0,30.55,2 
COMPS,ioos:station:USF.COMPS:FHP:1,2014-07-04T00:48:00Z,28.1530,-82.8010,-1.0,30.54,2 
COMPS,ioos:station:USF.COMPS:FHP:1,2014-07-04T00:54:00Z,28.1530,-82.8010,-1.0,30.52,2 
COMPS,ioos:station:USF.COMPS:FHP:1,2014-07-04T01:00:00Z,28.1530,-82.8010,-1.0,30.48,2 
COMPS,ioos:station:USF.COMPS:FHP:1,2014-07-04T01:06:00Z,28.1530,-82.8010,-1.0,30.43,2 
COMPS,ioos:station:USF.COMPS:FHP:1,2014-07-04T01:12:00Z,28.1530,-82.8010,-1.0,30.37,2 
COMPS,ioos:station:USF.COMPS:FHP:1,2014-07-04T01:18:00Z,28.1530,-82.8010,-1.0,30.33,2 
COMPS,ioos:station:USF.COMPS:FHP:1,2014-07-04T01:24:00Z,28.1530,-82.8010,-1.0,30.31,2 